COSMOS 2456 (730)

Last updated on Jan. 23, 2021, 7:31 a.m. UTC

1 36111U 09070A   21022.50603407 -.00000003  00000-0  00000-0 0  9994
2 36111  64.2546 138.5875 0002533 332.0245  47.0842  2.13099126 86451
UTC
Height (km)
Latitude
Longitude
Inclination
Orbital Period
UTC large
Height (km)
Speed (km/s)
/
Latitude / Longitude
Inclination (degrees)
Orbital Period (minutes)
Azimuth
Elevation
Range (km)
Doppler Factor
iOS Compass Heading
iOS Angle

Next 30 passes for location: Hong Kong

Rise time Rise Azimuth (degrees) Set time Set Azimuth (degrees) Duration Max altitude (degrees)

No matching passes for this satellites